User: anonymous   Login
Location: Melbourne
(37.8170°S, 144.9670°E)
Time: 22:14:38
(UTC+11:00)
Language:

Aureole 2 Rocket - Orbit

View from above orbital plane
View from above orbital plane
View from above satellite
View from above satellite

Ground track
Ground track

The orbit data is extracted from the following two-line orbital elements,

1 07004U 73107B   15062.48414219  .00018296  00000-0  42530-3 0  9999
2 07004 073.9405 050.2041 0261403 131.6843 002.1429 15.13743978109427
Epoch (UTC): 03 March 2015 11:37:09
Eccentricity: 0.0261403
inclination: 73.9405°
perigee height: 344 km
apogee height: 705 km
right ascension of ascending node: 50.2041°
argument of perigee: 131.6843°
revolutions per day: 15.13743978
mean anomaly at epoch: 2.1429°
orbit number at epoch: 10942

The dashed part of the orbit path shows where the satellite is in the earth's shadow,  

DLR